Voltar ao catálogo

STARLINK-35640

AtivoComunicaçõesVLEO
NORAD 66536·PAYLOAD·🇺🇸 United States

Lançado Nov 19, 2025 de Cape Canaveral Space Force Station

Loading…

Próximas Passagens (próximas 24 horas)

TLE

AtualizadoSource: CelesTrak SupGP

Época: Sep 14, 2026, 21:30 UTC

1 66536C 25265W   26257.89631944  .00002393  00000+0  86665-4 0  2570
2 66536  43.0007 289.5205 0001433 267.0991 273.2803 15.27574681    10

Acompanhe STARLINK-35640 em tempo real com AllMySat

Download on the App Store